Balcidere, Turkey

7:47 PM +03 on July 22, 2018 (GMT +0300)
Cardak Air Base | | Change Station

Elev 2785 ft 37.78 °N, 29.70 °E | Updated 57 minutes ago

Clear
Clear
88 °F
Feels Like 88 °F
N
12
Wind Variable Wind from NW

Today
High -- | Low -- °F
--% Chance of Precip.
Yesterday
High -- | Low -- °F
Precip. -- in
Pressure 29.89 in
Visibility 6.2 miles
Clouds Few 3500 ft
Dew Point 46 °F
Humidity 24%
Rainfall 0.00 in
Snow Depth Not available.
6:00 AM 8:19 PM
Waxing Gibbous, 78% visible
METAR LTAY 221550Z 31010KT 270V340 9999 FEW035 31/08 Q1012
Pressure 29.89 in
Visibility 6.2 miles
Clouds Few 3500 ft
Dew Point 46 °F
Humidity 24%
Rainfall 0.00 in
Snow Depth Not available.
6:00 AM 8:19 PM
Waxing Gibbous, 78% visible
METAR LTAY 221550Z 31010KT 270V340 9999 FEW035 31/08 Q1012

Get Severe Weather Alerts

Thanks for signing up!

Be on the lookout for a verification email in your inbox.

You'll start receiving the daily forecast at 6 AM.

×

10-Day Weather Forecast

×

Almanac

Astronomy

Jul. 22, 2018 Rise Set
Actual Time
Civil Twilight
Nautical Twilight
Astronomical Twilight
Moon
Length of Visible Light
Length of Day
Tomorrow will be .
, % of the Moon is Illuminated

Today's Extremes

Country Highs Country Lows

Community

WunderPhotos

Category 6

Welcome to Category 6. This is the collective home for Weather Underground's featured writeups by Dr. Jeff Masters (right), Bob Henson (left), Chris Burt, and other regular contributors.

Nearby

Air Quality

  Air Quality AQ Index Pollutant
Not available.

Snow Depth

Station Depth Elevation

Earthquake Activity

City Distance Mag. Time & Date
Minimum magnitude displayed is 2.5.

Coastal Water Temperatures

Place Temperature

Stations

Nearby Weather Stations

Station Location Temp. Windchill Dew Point Humidity Wind Precip. Elev Updated Type